Wind_Speed
36 39 43 48 50 51 54 58 63 66 69 73 78 83 87 91 94 99 103 106 109 113 118 124 131 139 146 151 152 153 154 155 155 158 162 164 164 163 163 164 165 166 167 168 168 167 166 165 164 162 160 159 157 156 154 153 151 150 148 148 147 147 146 145 144 144 143 142 140 138 137 134 132 131
36 37 40 45 49 50 52 55 59 63 67 70 75 80 85 89 92 95 100 104 107 111 115 120 126 133 140 145 148 150 152 154 155 157 161 164 165 164 163 163 164 165 166 167 168 168 167 166 165 164 163 162 160 158 156 154 152 151 150 149 148 147 147 146 145 145 144 144 143 142 140 139 136 135
36 37 38 42 46 49 51 53 56 60 64 68 72 76 81 86 89 92 96 101 106 109 113 117 121 127 134 140 145 147 149 152 154 155 158 162 165 165 164 164 164 165 165 166 167 168 168 168 167 166 165 164 163 161 159 157 154 153 152 151 150 149 148 147 146 146 145 144 143 143 142 141 140 138
36 37 38 40 43 46 50 52 54 57 61 65 69 73 77 82 86 90 93 98 104 108 111 114 118 123 129 136 141 144 146 149 152 154 156 160 163 165 165 165 165 165 165 166 166 167 168 168 168 167 166 166 165 163 162 160 158 156 155 153 152 150 150 149 149 148 147 145 144 143 143 142 141 140
35 36 37 39 41 44 47 50 52 55 58 62 66 70 74 78 83 87 91 94 100 105 108 112 115 120 125 131 137 141 143 145 148 152 155 157 161 165 166 166 166 165 165 165 165 166 167 168 168 168 167 167 166 165 164 162 161 160 158 156 154 153 152 151 151 150 149 148 146 145 144 143 142 141
35 36 36 38 40 42 44 47 50 54 56 58 62 66 71 74 78 83 88 92 96 101 106 109 113 116 121 127 132 138 141 143 145 148 152 155 159 163 166 167 166 166 165 165 165 165 165 166 167 168 168 168 167 166 165 165 164 163 161 159 158 157 156 155 154 153 152 150 149 148 147 145 144 143
33 35 36 36 38 40 42 45 47 51 55 57 59 63 67 71 75 79 84 88 93 98 102 106 111 113 117 122 128 134 138 141 142 144 148 153 157 162 165 167 166 166 165 164 164 164 165 165 166 167 168 168 168 168 167 166 165 164 163 162 161 160 159 158 157 156 155 154 152 151 150 148 146 145
32 34 35 35 36 38 41 43 45 48 52 55 57 59 63 67 72 75 79 85 90 94 98 102 107 112 114 117 123 130 135 138 140 142 145 150 155 159 163 165 166 166 166 165 164 164 164 164 164 165 166 167 168 168 168 168 167 165 164 163 163 162 162 162 160 159 158 157 155 154 152 150 149 147
32 33 35 35 35 36 38 41 43 45 49 53 56 58 60 63 68 72 76 81 86 91 95 98 103 108 112 115 119 124 131 136 139 141 143 147 152 157 161 164 166 167 166 165 165 164 164 164 164 164 164 165 166 167 168 168 168 167 166 165 164 164 163 163 162 162 161 160 158 157 155 153 151 150
32 32 34 35 34 35 36 39 41 43 45 49 53 57 59 61 65 69 73 78 82 87 92 95 98 103 108 113 116 120 125 131 136 139 141 145 149 154 158 162 165 167 167 166 165 164 164 164 164 164 164 164 164 165 166 167 167 167 167 166 166 165 165 164 163 163 163 162 160 159 158 157 155 153
32 31 32 34 34 34 35 37 39 40 42 46 50 54 57 60 62 65 70 74 79 84 88 92 94 97 102 108 113 117 121 125 130 136 139 143 146 151 155 159 162 166 167 167 166 165 164 164 164 164 164 164 164 164 164 164 165 166 167 167 167 167 166 165 165 164 164 163 162 160 159 160 159 157
32 30 30 32 34 33 33 35 37 38 40 43 46 50 55 58 61 63 66 71 76 80 85 89 91 93 97 102 107 113 117 120 125 131 136 140 143 146 151 156 159 163 166 167 167 166 165 165 165 164 164 164 164 164 164 164 164 164 165 166 167 168 168 167 166 166 166 165 164 162 161 161 161 160
33 30 29 30 32 33 33 33 35 37 38 40 43 47 51 55 59 62 64 68 72 77 81 85 88 90 92 96 101 107 112 116 120 125 129 134 139 142 146 151 155 159 162 165 167 167 166 166 165 165 165 164 164 164 164 164 164 164 164 165 166 167 167 168 167 167 167 167 166 164 163 163 163 162
33 31 29 28 30 32 33 33 34 35 37 38 40 44 47 51 55 59 62 65 69 74 77 81 84 87 89 92 96 101 105 110 115 119 122 127 133 138 142 146 151 155 159 163 165 167 167 166 166 165 165 165 164 164 164 164 164 164 164 164 164 165 166 166 167 167 168 168 167 166 165 165 164 164
32 31 29 27 28 30 32 33 34 34 35 37 38 41 44 48 52 56 60 63 66 70 74 77 80 83 85 88 91 96 100 104 109 114 117 122 128 132 137 142 147 152 156 160 163 165 166 166 166 165 165 165 165 164 164 163 163 164 164 164 164 164 164 165 165 166 166 167 168 167 167 166 166 165
31 31 30 28 27 28 30 32 33 34 34 35 36 39 41 45 49 53 56 60 63 66 71 75 77 79 81 84 87 91 95 99 104 108 112 117 122 127 131 137 143 148 153 156 160 163 164 165 165 165 165 165 165 165 164 164 163 163 163 163 164 164 164 164 164 165 165 166 166 166 166 166 166 166
30 30 30 28 27 27 28 30 31 33 33 34 35 36 39 42 45 50 54 57 60 63 66 71 74 77 78 80 84 87 90 95 99 104 109 113 118 122 126 132 138 143 148 152 156 159 161 163 164 165 165 166 166 166 165 165 164 163 163 163 163 163 164 164 164 164 164 165 165 165 165 165 165 165
29 29 29 29 27 26 26 28 30 31 32 33 33 34 37 39 42 47 51 54 57 60 62 66 70 74 76 78 81 84 87 90 95 100 105 109 113 117 122 126 132 137 141 146 150 154 158 161 163 164 165 166 167 166 166 166 165 164 164 164 164 164 164 164 164 164 164 164 164 164 164 164 164 164
29 28 28 28 28 27 26 26 28 30 31 32 32 33 35 37 40 44 48 52 54 57 59 62 65 69 73 75 78 80 84 87 90 94 100 104 108 112 117 121 126 131 135 140 145 149 154 158 161 163 165 166 166 167 167 167 166 166 165 165 164 164 164 164 164 164 164 164 164 164 163 163 163 163
29 27 27 27 28 27 26 26 26 28 30 31 32 32 33 35 38 41 45 49 52 55 57 59 62 65 68 71 74 77 80 83 87 90 94 99 104 108 112 117 122 126 130 134 139 144 149 154 157 160 163 164 166 166 167 167 167 167 167 166 166 165 165 165 164 164 164 164 164 164 163 163 163 162
30 27 26 26 27 27 27 26 26 26 28 30 31 32 32 34 36 38 42 46 50 52 54 56 59 61 64 67 70 72 75 79 83 87 90 94 99 104 109 113 117 122 126 129 132 137 142 148 152 155 159 162 164 165 166 167 167 167 167 167 167 167 166 166 165 165 165 164 164 164 164 163 163 163
30 27 26 26 26 26 26 26 26 26 26 28 30 31 32 33 34 36 39 43 47 50 52 54 57 59 61 63 66 68 71 74 78 82 86 90 94 99 104 109 113 117 120 123 126 131 136 141 146 150 154 158 161 163 165 166 166 167 167 168 168 168 167 167 167 166 166 165 165 165 164 164 164 164
30 28 26 25 25 25 26 26 26 26 26 27 28 30 31 32 33 34 36 40 43 47 50 52 54 56 58 60 62 65 68 70 73 76 81 86 91 95 100 105 109 113 116 118 122 126 131 136 140 144 148 152 156 159 162 164 165 166 167 167 168 168 168 168 168 167 167 166 166 166 165 165 165 165
30 28 26 25 25 25 25 25 26 26 26 26 27 28 29 31 33 34 35 37 40 43 47 49 51 54 55 57 59 62 65 67 69 72 75 80 86 91 96 100 104 108 112 114 117 120 125 131 135 138 142 146 150 154 158 161 163 164 166 167 167 168 168 168 168 168 168 167 167 167 166 166 166 166
30 29 26 24 24 24 24 24 25 26 26 26 27 27 28 29 31 33 34 35 37 40 43 46 49 51 53 55 57 59 62 64 67 69 72 76 80 85 90 95 100 104 108 110 112 115 120 125 130 133 137 140 144 148 152 155 158 161 163 165 166 167 167 168 168 168 168 168 168 168 168 167 167 167
30 29 27 24 23 23 24 24 24 25 26 27 27 27 28 28 30 32 33 34 35 37 40 43 46 48 50 52 54 56 59 62 64 66 69 72 76 79 84 89 94 99 103 106 109 112 116 120 124 128 131 134 138 141 145 149 152 156 159 162 164 165 166 166 167 167 167 168 168 168 168 168 168 168
31 29 27 25 23 23 23 23 24 24 25 27 27 27 27 28 29 30 31 33 34 35 37 40 42 45 47 49 51 54 56 59 61 64 67 69 72 75 79 83 88 92 97 101 105 109 112 116 119 123 126 130 133 137 140 143 146 150 153 156 159 162 163 164 165 166 167 167 167 168 168 168 168 168
31 29 27 26 24 23 22 22 23 24 24 26 27 27 27 28 28 29 30 31 33 34 36 37 40 42 44 46 48 51 54 56 58 61 64 67 70 72 75 79 83 86 90 94 99 104 108 112 115 118 122 125 129 132 136 139 141 144 147 150 153 156 158 160 162 164 165 166 167 167 167 167 168 168
31 30 28 26 24 24 23 22 22 23 23 25 26 27 28 28 28 29 30 30 31 33 34 36 38 40 42 44 46 48 51 53 56 58 61 64 67 70 73 75 78 81 84 88 92 96 102 107 110 114 117 120 123 127 131 134 137 139 141 144 146 149 151 154 156 159 161 163 164 165 166 166 167 167
31 30 28 26 24 23 23 23 22 22 22 23 25 27 28 28 29 29 30 30 31 32 33 34 36 38 40 41 43 45 47 50 52 55 58 61 64 67 70 72 75 77 80 83 86 90 94 99 104 108 111 114 117 121 125 129 132 134 136 138 141 143 145 147 150 152 155 157 159 161 162 163 165 165
31 30 29 27 25 23 22 23 23 22 22 22 24 26 27 28 29 30 30 30 31 31 32 33 35 37 38 40 41 43 45 47 49 52 55 58 61 63 66 69 72 74 75 78 81 84 88 92 97 101 105 109 112 115 119 122 125 128 130 133 135 137 139 141 144 146 148 151 153 154 156 158 160 161
31 30 29 28 26 23 22 22 23 23 23 22 23 24 26 28 29 30 30 31 31 31 32 33 34 35 37 39 40 41 43 44 46 48 52 55 58 60 63 66 68 69 71 73 76 79 83 86 89 93 97 101 106 109 112 116 118 121 124 126 129 131 134 136 138 140 142 144 146 148 150 151 153 155
31 29 29 28 27 25 23 22 22 22 23 23 23 23 25 27 28 30 30 31 31 32 32 33 34 35 36 38 39 40 42 43 44 46 49 51 54 56 59 62 64 65 66 69 71 74 77 80 83 86 89 93 98 102 106 110 113 115 118 120 122 125 128 130 132 134 136 138 140 141 143 145 146 148
30 29 29 28 27 25 24 22 22 22 22 23 23 23 24 25 27 29 30 30 31 32 33 33 34 35 36 37 38 40 41 42 43 45 47 49 51 53 55 58 60 61 62 64 67 69 72 75 77 80 83 87 90 94 99 103 107 110 112 114 116 119 121 124 126 129 131 132 134 135 137 138 140 141
29 29 29 28 26 25 24 23 22 22 22 23 23 23 24 25 26 28 29 30 31 32 32 33 34 35 36 37 38 39 40 41 42 44 45 47 49 50 52 54 56 57 58 60 62 65 68 70 73 75 78 81 84 88 92 96 100 103 106 108 111 113 115 118 120 123 125 127 128 130 131 133 134 135
29 29 29 27 26 25 24 23 23 22 23 23 24 23 23 24 26 27 28 29 30 31 32 33 34 35 36 37 38 38 39 41 42 43 44 45 47 48 49 51 53 54 55 57 58 61 63 66 69 72 74 77 79 83 86 90 93 96 99 102 105 107 110 112 114 116 118 121 123 124 126 128 129 130
29 29 29 27 26 25 24 23 23 23 23 23 24 24 24 24 25 26 27 28 30 31 31 32 33 34 35 36 37 38 39 40 41 42 43 44 45 47 48 49 51 52 53 54 55 57 60 63 65 68 70 73 76 79 82 84 87 89 92 95 98 101 104 106 109 111 113 115 117 119 121 122 124 125
30 29 28 27 26 25 23 22 22 22 22 23 24 25 24 24 24 25 26 27 29 30 31 31 32 33 34 35 35 36 37 39 40 40 41 42 43 45 46 48 49 51 52 52 53 55 57 60 62 64 66 69 72 75 77 79 80 82 85 88 91 94 98 101 103 105 108 109 111 113 115 117 118 119
31 29 29 28 26 25 23 22 22 22 22 22 23 24 25 24 24 24 25 26 28 29 30 30 31 32 33 33 34 35 36 37 38 38 39 39 40 42 43 45 47 49 50 51 52 53 55 57 58 60 62 64 67 69 71 72 75 78 81 84 87 89 92 95 98 100 103 105 107 108 110 111 112 114
30 29 29 28 26 25 23 22 22 22 22 22 23 23 24 25 24 24 25 25 26 28 28 29 30 31 31 32 32 33 34 36 36 36 37 37 38 39 40 42 44 46 48 49 50 51 53 54 56 57 59 61 63 65 66 69 73 76 79 81 83 85 87 89 92 94 97 99 101 103 104 106 107 109
29 29 29 28 26 25 23 22 22 22 21 21 22 23 24 24 24 24 24 25 25 26 27 28 29 30 30 31 31 31 33 34 35 35 35 35 36 37 38 39 41 43 44 46 47 49 50 52 54 55 57 58 59 61 63 66 69 71 74 76 78 80 82 85 87 89 91 93 95 97 99 100 102 104
29 30 29 28 27 25 23 22 22 21 21 21 21 22 23 23 24 24 24 25 25 26 26 27 28 29 29 29 29 30 31 33 33 33 33 33 34 35 36 37 38 40 41 43 44 46 48 49 51 52 54 55 56 58 59 62 64 66 69 71 73 76 78 80 83 85 87 88 90 91 93 95 97 99
30 30 29 28 27 25 23 22 22 21 21 21 21 22 22 23 23 24 24 24 25 25 25 26 27 28 28 28 28 28 29 31 32 32 32 32 32 33 34 35 36 37 38 40 41 43 45 46 48 49 50 52 53 55 57 59 60 63 65 67 69 72 74 76 78 80 82 84 85 87 88 90 92 94
30 30 29 28 26 25 23 22 22 22 21 21 21 21 22 22 23 23 23 24 24 24 25 26 26 27 27 27 27 27 28 29 31 31 31 31 31 32 32 33 34 35 36 37 39 40 42 44 45 46 48 49 50 52 54 56 58 60 62 64 66 68 70 72 74 76 77 79 81 82 84 86 87 89
30 30 28 27 26 24 23 22 22 22 22 21 21 21 21 22 22 23 23 23 24 24 24 25 26 26 27 26 26 26 26 28 29 30 30 30 30 31 31 32 32 33 34 35 36 38 39 41 43 45 46 47 48 49 51 52 54 56 58 60 62 64 66 68 70 71 73 74 76 77 79 81 83 84
Wind_Direction
270 265 262 261 258 252 248 245 243 239 236 234 232 232 232 231 230 229 229 227 226 226 225 224 224 225 226 226 225 224 223 221 219 218 219 220 222 222 222 221 221 221 221 222 223 223 224 224 224 225 226 227 228 229 229 230 231 232 233 234 235 235 235 235 235 236 236 236 237 238 239 239 240 242
275 269 264 261 259 256 250 246 244 241 238 235 233 232 232 232 231 230 229 229 227 226 225 225 224 224 225 226 226 225 223 222 221 219 219 220 221 222 222 222 222 222 222 222 223 223 224 224 225 225 225 226 227 228 229 230 231 232 233 234 235 236 237 237 237 238 238 238 238 238 239 239 239 240
278 273 267 263 260 257 254 249 245 242 240 237 235 233 232 232 232 230 229 229 229 227 226 225 224 224 224 225 226 225 224 223 222 221 219 220 221 222 223 223 223 223 223 223 223 223 224 224 225 225 226 226 227 227 228 229 230 231 233 233 234 236 237 237 238 239 239 240 240 240 240 240 240 240
281 276 271 266 262 258 255 252 248 243 240 238 236 234 232 232 232 231 230 229 229 229 227 226 224 224 224 224 225 225 224 223 222 221 221 220 220 222 223 223 223 223 223 223 223 223 224 224 225 226 226 226 227 227 228 228 229 230 232 233 234 235 236 237 238 238 239 240 241 241 242 242 242 242
283 278 273 268 264 260 256 253 250 247 242 239 237 236 234 232 231 231 231 229 229 229 229 228 226 224 223 224 224 225 225 224 223 222 221 221 221 221 223 223 224 224 224 224 224 224 224 225 225 226 226 227 227 228 228 228 228 229 230 232 233 234 235 236 237 238 238 239 240 241 242 242 243 243
284 280 275 269 265 262 258 254 251 249 246 241 238 237 235 233 231 231 231 230 229 229 229 229 228 226 224 223 224 224 224 224 223 222 221 221 221 221 222 224 224 225 225 224 224 225 225 225 225 226 226 227 228 228 228 229 229 229 229 230 232 233 234 235 236 237 238 238 239 240 241 242 242 243
286 282 277 271 266 262 259 255 252 249 248 245 240 237 236 235 233 231 230 231 230 229 228 228 229 228 226 224 223 224 224 224 223 222 221 221 221 221 222 224 225 225 225 225 225 225 225 225 226 226 226 227 227 228 229 229 230 230 230 230 231 232 233 234 235 236 237 238 238 239 240 241 241 242
288 284 279 274 267 263 260 257 253 250 248 247 244 239 236 235 235 233 231 230 230 230 229 227 228 229 228 226 224 224 224 224 224 223 222 221 221 221 222 223 224 225 226 226 226 226 226 226 226 226 227 227 227 228 229 230 230 230 231 231 231 232 233 234 234 235 236 237 238 238 239 240 241 242
290 285 281 276 270 264 260 258 255 252 248 246 245 242 238 236 235 234 232 231 230 230 230 228 227 227 228 228 226 225 225 225 224 223 222 221 221 221 222 222 224 225 226 226 227 227 227 227 227 227 227 228 228 228 229 229 230 231 231 232 232 233 233 234 235 235 236 237 238 238 239 239 240 241
290 287 282 278 273 267 262 259 256 253 249 246 245 244 241 237 235 234 233 232 231 231 231 229 227 226 227 228 228 227 226 225 225 224 223 222 221 221 222 222 223 224 226 226 227 227 227 227 228 228 228 228 229 229 229 230 230 231 231 232 233 233 234 234 235 236 236 237 237 238 239 239 239 240
291 287 283 279 275 270 264 261 258 255 251 247 244 243 242 239 236 234 233 233 232 231 231 231 229 226 226 227 228 228 227 226 226 225 225 224 222 221 222 222 222 224 225 226 227 227 227 228 228 228 228 229 229 229 230 230 230 231 231 232 233 233 234 234 235 236 237 237 238 238 239 240 240 239
290 287 283 279 276 272 267 262 260 257 254 249 245 243 242 240 238 235 233 232 232 232 231 231 230 228 227 227 227 228 228 227 227 226 226 225 224 223 222 222 222 223 225 226 227 227 228 228 228 229 229 229 229 229 230 230 231 231 231 232 233 233 234 234 235 236 237 238 238 238 239 240 241 241
290 287 283 279 277 274 270 265 261 259 256 252 247 243 241 240 238 236 233 232 232 232 232 231 231 230 228 227 227 227 228 228 228 227 227 226 226 225 224 223 223 223 224 225 227 227 228 228 228 229 229 229 229 230 230 230 230 231 231 232 233 233 234 235 235 236 237 238 238 238 239 239 241 241
289 288 285 280 277 275 272 268 263 260 257 254 249 244 242 240 238 237 235 233 231 232 232 232 231 230 229 228 227 227 227 228 229 228 228 227 227 226 226 225 224 224 224 225 226 227 228 228 229 229 229 230 230 230 230 230 231 231 231 232 233 233 234 235 235 236 236 237 238 238 239 239 240 241
288 288 286 282 277 274 272 269 265 260 257 255 251 246 242 240 238 237 235 234 232 231 232 232 231 230 229 228 227 227 227 227 228 229 228 228 228 228 227 226 226 225 224 224 225 227 228 228 229 229 230 230 231 231 231 231 231 231 232 232 233 233 234 234 235 236 236 237 238 238 239 239 240 241
287 287 286 283 278 273 270 268 265 261 258 255 252 248 244 241 239 237 235 234 233 232 231 232 232 231 229 228 228 227 226 226 227 227 228 228 228 228 227 227 227 227 226 225 225 226 227 228 229 230 230 231 231 232 232 232 232 232 232 233 233 233 234 235 235 236 236 237 238 238 239 239 240 241
284 286 286 284 280 274 270 267 264 262 258 255 253 250 246 243 239 237 235 233 232 232 231 231 232 232 230 228 228 227 226 225 225 226 227 227 228 228 228 228 228 227 227 227 226 226 227 227 228 230 231 231 232 232 232 233 233 233 233 233 234 234 234 235 235 236 236 237 238 238 239 239 240 240
283 284 285 285 282 276 270 267 265 262 259 256 253 250 247 244 241 238 236 234 232 231 231 231 232 232 231 229 228 227 227 226 225 225 225 226 227 227 228 228 228 228 228 227 227 227 227 227 228 229 230 231 232 232 233 233 233 234 234 234 234 235 235 235 236 236 237 237 238 238 239 239 240 240
282 283 284 284 283 278 272 268 265 262 259 256 254 251 248 245 242 240 237 235 233 232 231 231 231 232 232 231 229 228 227 226 225 225 225 226 227 227 228 228 228 228 228 228 228 228 228 228 228 228 229 230 231 232 233 234 234 234 235 235 235 235 236 236 236 237 237 238 238 239 239 240 240 241
280 281 282 283 282 280 275 269 264 261 259 257 254 252 249 246 243 241 238 236 234 233 232 231 232 232 232 232 231 229 228 227 226 225 225 225 226 227 228 228 228 228 228 228 228 228 228 228 228 229 229 230 230 231 232 233 234 235 235 235 236 236 236 237 237 237 238 238 239 239 240 240 241 241
278 278 280 281 281 280 276 271 266 262 258 256 254 253 250 247 243 241 239 237 235 233 232 232 232 232 232 233 233 232 230 228 227 226 225 225 225 226 227 228 228 229 228 228 228 228 229 229 229 229 229 230 230 231 232 233 234 235 235 236 236 237 237 237 238 238 238 239 239 240 240 240 241 241
276 276 277 278 279 279 277 273 268 264 259 256 253 252 251 249 245 241 240 238 236 234 233 232 232 232 233 233 233 233 232 230 228 227 227 226 226 226 227 228 229 229 229 228 228 228 229 229 229 229 229 230 230 231 232 232 233 234 235 236 236 237 238 238 238 239 239 239 240 240 241 241 241 242
273 274 274 276 277 277 277 275 270 266 261 257 253 250 250 250 247 243 240 239 237 235 233 232 232 233 232 233 233 233 233 232 231 229 228 227 227 227 227 228 229 230 230 229 228 228 228 229 229 229 229 230 230 231 232 232 233 234 234 235 236 237 237 238 239 239 240 240 241 241 242 242 242 243
271 272 272 273 276 276 276 276 273 268 264 260 256 251 248 248 248 246 242 240 238 236 234 232 232 233 232 232 233 233 233 233 232 231 229 228 227 227 227 228 229 230 230 230 229 229 229 229 230 230 230 230 230 231 231 232 233 233 234 235 236 236 237 238 238 239 240 240 241 241 242 243 243 243
268 270 270 271 273 275 275 275 273 270 266 263 259 255 250 246 246 247 244 241 239 238 236 234 232 232 232 232 232 233 233 233 232 232 231 229 228 228 228 228 229 229 230 231 230 230 230 230 230 230 230 230 230 231 231 232 232 233 234 234 235 236 237 237 238 239 239 240 241 241 242 243 243 244
266 268 269 269 270 272 274 273 272 270 268 264 261 258 254 248 245 245 245 243 241 239 238 236 234 232 232 232 233 233 233 233 233 232 232 231 230 229 229 229 229 229 230 230 231 231 231 231 231 231 231 231 231 231 232 232 233 233 233 234 235 235 236 237 238 238 239 240 240 241 242 242 243 244
265 266 268 269 268 269 271 272 272 270 268 265 263 260 258 253 248 245 244 243 243 241 239 238 236 234 232 232 232 233 233 233 233 233 233 232 232 231 230 230 229 230 230 230 230 231 231 231 231 231 231 231 231 232 232 232 232 233 233 234 234 235 236 236 237 238 238 239 240 240 241 242 243 243
263 265 266 267 268 268 268 269 271 271 269 266 264 262 260 257 253 249 246 244 243 242 241 239 238 237 235 233 233 233 233 234 234 234 234 233 233 232 231 231 230 230 230 230 230 231 232 232 232 232 232 231 231 232 232 233 233 233 233 234 234 235 235 236 236 237 238 238 239 240 240 241 242 242
262 263 265 265 267 268 268 267 268 269 269 267 265 263 261 259 256 253 249 246 244 243 243 242 240 238 237 236 235 234 233 234 234 234 234 234 234 234 233 232 231 231 230 230 231 231 232 233 233 233 233 233 232 232 233 233 233 233 234 234 235 235 235 236 236 237 237 238 239 239 240 240 241 242
260 262 264 264 264 266 269 269 268 267 267 266 265 263 261 260 259 256 253 249 246 244 243 243 243 241 239 238 237 236 235 235 235 235 235 235 235 235 235 234 233 232 231 231 231 231 231 232 233 234 234 234 234 234 234 234 234 234 234 235 235 235 236 236 237 237 237 238 238 239 239 240 241 241
257 260 262 264 263 263 266 269 270 269 267 266 264 262 261 260 259 258 256 253 250 247 244 243 243 243 242 241 239 238 238 237 236 236 236 236 236 236 236 236 236 234 233 232 232 232 232 232 232 233 234 234 235 235 235 235 236 235 235 235 236 236 236 237 237 237 238 238 238 239 239 240 240 241
255 258 261 263 264 263 263 265 269 270 270 268 265 263 261 259 259 258 258 256 254 251 248 246 244 243 243 243 242 241 240 239 239 239 238 238 237 237 237 238 237 237 236 235 234 233 233 233 233 233 234 234 235 235 236 236 237 237 237 236 236 237 237 237 238 238 239 239 239 239 239 240 240 241
253 255 259 261 263 264 264 264 266 269 270 270 268 265 262 259 258 257 257 257 256 254 252 250 248 246 244 243 242 243 243 242 241 241 241 241 240 239 239 239 239 238 237 237 236 236 235 234 233 233 234 234 234 235 236 236 237 237 238 238 238 238 238 238 238 239 239 239 240 240 240 240 240 241
251 253 256 259 262 264 265 266 266 267 269 270 270 268 266 262 258 257 256 256 256 255 254 253 252 250 248 246 243 242 242 243 243 243 243 243 242 242 241 241 240 239 238 238 237 237 237 237 236 235 234 234 234 234 235 236 236 237 238 238 238 238 238 239 239 239 239 240 240 241 241 241 241 241
250 251 254 257 260 262 265 267 268 268 269 270 270 269 268 265 261 258 256 255 255 254 254 253 253 253 252 250 248 246 244 243 243 243 244 245 245 244 244 243 243 241 239 238 238 238 237 237 237 237 236 235 234 234 234 235 236 236 237 238 238 238 239 239 239 239 240 240 240 241 241 242 242 242
249 250 253 255 257 260 262 265 267 269 270 271 271 270 269 267 265 261 257 255 255 254 254 253 253 252 252 251 250 249 247 245 244 243 244 245 246 246 245 245 245 244 241 239 238 239 238 237 237 237 237 236 236 235 235 235 235 236 236 237 238 239 239 239 240 240 240 240 241 241 241 242 242 242
249 250 252 254 256 258 260 262 265 268 270 271 272 272 270 268 266 264 260 257 256 255 254 254 253 253 253 252 251 250 248 247 246 244 244 244 245 246 246 245 245 245 244 242 240 239 239 238 237 237 236 236 236 236 236 235 235 235 236 236 237 238 239 239 240 240 241 241 241 241 242 242 242 242
250 251 252 254 255 257 259 261 263 265 268 270 272 273 272 270 268 265 262 258 256 255 255 254 254 254 254 253 253 252 251 249 248 246 245 244 244 244 245 245 245 245 244 244 242 240 239 239 239 238 237 236 236 237 237 237 237 237 237 236 236 237 238 239 239 240 241 241 241 242 242 242 242 242
251 252 253 254 255 257 258 260 262 264 266 268 271 272 273 272 270 268 264 260 257 255 255 255 255 254 254 255 254 254 254 252 251 249 248 246 245 245 244 244 244 244 243 243 242 242 241 240 240 240 239 239 238 238 238 238 238 237 237 237 236 236 236 237 238 238 239 240 241 241 242 242 242 243
252 252 254 255 256 257 259 260 262 264 266 268 270 272 273 273 272 270 267 263 259 256 254 254 255 255 255 255 255 255 255 254 253 251 250 249 248 246 245 244 243 243 242 242 241 241 241 241 241 240 240 240 239 238 237 236 236 236 237 237 237 237 237 237 237 238 238 239 240 241 241 242 242 242
252 252 254 256 257 258 260 261 263 265 267 268 270 272 273 274 274 273 271 267 263 259 255 254 254 255 255 255 256 256 256 255 254 253 251 251 250 249 247 246 244 243 242 241 241 240 240 240 240 240 241 241 240 240 239 238 237 237 237 238 238 238 238 238 238 239 239 239 240 240 241 241 242 242
251 252 255 256 257 259 261 263 264 267 268 269 271 272 273 274 274 274 273 271 267 262 258 255 254 255 255 256 256 256 257 257 256 255 253 252 251 251 249 248 246 244 243 242 241 240 240 239 239 240 240 241 241 240 240 239 239 239 238 238 238 238 238 238 238 239 239 239 239 240 240 241 241 242
251 253 255 256 258 261 262 264 266 268 269 270 272 273 274 274 274 274 274 272 269 265 261 258 256 255 255 256 256 256 256 257 257 256 255 254 253 252 251 249 247 246 244 243 242 241 241 240 240 240 240 240 240 240 240 239 239 239 239 238 238 238 238 238 238 238 239 239 240 240 240 241 241 241
251 253 255 257 259 261 264 266 268 269 270 271 273 274 275 275 275 274 274 273 271 267 263 259 257 256 256 255 255 255 256 257 257 257 256 254 254 253 252 250 248 247 245 244 243 242 241 241 240 240 240 240 241 241 241 240 239 239 239 239 238 238 238 238 238 238 238 239 239 240 240 241 242 242
251 254 255 257 259 262 264 267 269 271 272 273 274 275 276 276 275 275 274 273 272 269 265 261 258 257 257 256 256 255 255 256 257 257 257 255 254 253 253 252 250 249 247 245 243 243 242 242 241 240 240 240 240 240 241 240 240 240 239 239 239 239 239 239 239 239 239 239 239 239 240 240 241 242
Height
10047 10047 10046 10045 10045 10047 10047 10048 10049 10051 10055 10058 10061 10064 10067 10073 10081 10087 10092 10099 10105 10111 10119 10128 10136 10143 10153 10166 10180 10196 10209 10222 10234 10243 10248 10255 10265 10275 10287 10299 10310 10320 10331 10343 10353 10362 10372 10383 10394 10405 10416 10424 10432 10440 10448 10457 10467 10474 10479 10485 10491 10497 10504 10513 10520 10525 10529 10535 10543 10549 10554 10561 10568 10571
10038 10038 10038 10037 10036 10036 10037 10039 10040 10041 10044 10047 10051 10054 10057 10061 10067 10074 10081 10087 10092 10098 10105 10113 10123 10132 10140 10152 10165 10180 10194 10207 10219 10229 10235 10242 10250 10259 10271 10283 10294 10304 10315 10327 10337 10347 10357 10367 10377 10388 10399 10408 10416 10425 10434 10445 10454 10460 10466 10472 10478 10483 10490 10499 10506 10510 10514 10520 10528 10535 10539 10547 10555 10560
10030 10029 10029 10028 10027 10027 10027 10029 10031 10032 10033 10036 10040 10044 10048 10052 10056 10062 10069 10075 10078 10084 10092 10100 10109 10118 10127 10138 10149 10162 10177 10191 10203 10215 10223 10230 10237 10246 10255 10266 10277 10288 10299 10310 10321 10331 10341 10352 10361 10372 10382 10390 10399 10409 10419 10430 10439 10446 10452 10458 10465 10471 10477 10484 10491 10495 10500 10506 10513 10519 10524 10531 10539 10545
10022 10021 10020 10020 10019 10018 10018 10019 10020 10022 10024 10026 10028 10033 10038 10042 10046 10050 10057 10064 10066 10070 10079 10087 10094 10104 10114 10123 10133 10145 10159 10172 10187 10200 10211 10218 10226 10233 10241 10250 10260 10271 10283 10294 10305 10315 10325 10336 10346 10356 10365 10373 10382 10392 10403 10413 10423 10429 10435 10444 10453 10459 10464 10469 10475 10480 10486 10493 10499 10504 10510 10516 10524 10530
10014 10013 10012 10011 10011 10010 10010 10010 10010 10011 10014 10016 10018 10021 10026 10031 10036 10039 10044 10051 10055 10059 10067 10074 10081 10092 10101 10109 10118 10129 10141 10155 10169 10184 10196 10206 10214 10221 10227 10235 10244 10255 10267 10278 10289 10299 10310 10320 10331 10341 10349 10358 10367 10376 10385 10395 10403 10411 10420 10430 10438 10444 10448 10453 10458 10463 10470 10479 10485 10490 10496 10502 10509 10516
10007 10005 10004 10003 10003 10002 10002 10001 10001 10001 10003 10006 10008 10011 10015 10019 10025 10030 10033 10038 10043 10048 10055 10062 10069 10078 10088 10097 10105 10114 10125 10138 10151 10165 10180 10192 10201 10208 10214 10221 10230 10240 10251 10262 10273 10283 10294 10304 10315 10325 10334 10343 10352 10360 10368 10376 10384 10394 10405 10415 10421 10427 10432 10437 10442 10447 10454 10462 10471 10476 10481 10488 10495 10502
10000 9998 9996 9996 9995 9994 9994 9993 9993 9993 9993 9996 9998 10001 10005 10008 10013 10019 10024 10027 10031 10035 10043 10051 10057 10064 10075 10085 10092 10100 10110 10122 10134 10148 10163 10176 10185 10194 10201 10209 10217 10227 10236 10247 10257 10267 10277 10288 10298 10308 10317 10327 10336 10344 10352 10360 10369 10379 10389 10397 10404 10410 10415 10420 10426 10433 10438 10445 10454 10461 10467 10474 10481 10488
9993 9991 9989 9988 9987 9987 9986 9985 9985 9985 9985 9986 9988 9991 9995 9998 10002 10007 10013 10016 10019 10023 10030 10040 10047 10052 10060 10072 10081 10088 10097 10107 10118 10131 10144 10156 10168 10178 10187 10196 10205 10213 10222 10231 10241 10251 10261 10271 10282 10292 10301 10310 10319 10328 10336 10344 10353 10363 10372 10380 10388 10395 10399 10404 10411 10418 10424 10429 10437 10446 10453 10460 10468 10474
9986 9984 9982 9980 9980 9979 9979 9978 9977 9977 9978 9978 9979 9982 9985 9988 9991 9996 10000 10004 10008 10011 10016 10026 10035 10042 10048 10058 10067 10076 10084 10093 10103 10115 10126 10137 10150 10161 10172 10182 10190 10198 10206 10216 10226 10236 10246 10256 10266 10276 10285 10294 10303 10312 10320 10329 10338 10347 10356 10364 10372 10379 10385 10390 10396 10403 10409 10415 10422 10430 10437 10445 10454 10459
9979 9977 9975 9973 9972 9972 9971 9970 9970 9969 9970 9970 9972 9973 9976 9978 9981 9985 9989 9993 9996 10000 10004 10011 10022 10031 10038 10045 10053 10062 10071 10080 10089 10099 10110 10120 10132 10144 10155 10166 10175 10182 10191 10201 10211 10221 10232 10241 10249 10259 10269 10278 10287 10296 10305 10314 10323 10332 10340 10347 10354 10361 10369 10376 10381 10387 10393 10399 10407 10416 10422 10428 10437 10445
9972 9970 9968 9966 9965 9964 9964 9963 9962 9962 9962 9963 9964 9965 9967 9969 9972 9976 9979 9983 9986 9989 9993 9999 10008 10019 10027 10034 10041 10048 10057 10067 10077 10086 10095 10104 10115 10126 10138 10149 10159 10167 10176 10186 10196 10206 10216 10225 10233 10242 10251 10261 10270 10280 10289 10298 10307 10316 10324 10331 10337 10344 10351 10360 10366 10371 10376 10383 10392 10401 10407 10411 10417 10427
9965 9963 9961 9959 9958 9957 9957 9956 9955 9955 9955 9955 9956 9957 9959 9961 9963 9967 9970 9973 9976 9978 9982 9987 9995 10005 10015 10022 10029 10036 10044 10054 10063 10070 10079 10090 10101 10112 10123 10133 10144 10154 10164 10172 10181 10190 10199 10209 10217 10226 10234 10244 10253 10262 10272 10282 10291 10299 10307 10314 10321 10327 10334 10343 10350 10355 10359 10366 10375 10385 10392 10395 10398 10407
9958 9956 9954 9953 9951 9950 9949 9949 9949 9948 9947 9947 9948 9950 9951 9953 9955 9958 9961 9964 9967 9969 9973 9977 9984 9993 10002 10010 10017 10025 10032 10041 10048 10056 10068 10081 10090 10099 10109 10120 10131 10141 10151 10159 10166 10174 10183 10192 10201 10210 10218 10228 10237 10245 10255 10265 10274 10282 10290 10297 10304 10311 10317 10325 10333 10339 10344 10349 10358 10368 10375 10380 10383 10389
9951 9949 9947 9946 9944 9943 9942 9942 9942 9941 9940 9940 9941 9942 9943 9945 9947 9949 9952 9955 9958 9961 9964 9969 9975 9981 9989 9998 10006 10013 10021 10030 10037 10047 10060 10069 10074 10083 10096 10109 10117 10125 10133 10143 10151 10159 10166 10175 10185 10195 10205 10212 10220 10229 10239 10248 10257 10264 10272 10280 10287 10295 10301 10308 10315 10323 10328 10333 10341 10350 10358 10364 10368 10374
9944 9942 9940 9939 9938 9937 9935 9935 9935 9934 9934 9934 9934 9935 9936 9937 9939 9942 9944 9947 9950 9953 9956 9960 9965 9971 9978 9987 9995 10002 10010 10019 10027 10036 10046 10053 10059 10069 10084 10094 10098 10105 10115 10124 10133 10141 10150 10161 10172 10182 10190 10197 10205 10214 10224 10232 10240 10247 10255 10264 10272 10279 10285 10292 10298 10305 10312 10318 10324 10332 10340 10346 10352 10358
9938 9935 9933 9932 9931 9930 9929 9928 9928 9928 9927 9927 9927 9928 9929 9930 9932 9934 9936 9939 9942 9945 9948 9951 9955 9961 9968 9976 9983 9989 9997 10006 10014 10022 10031 10039 10045 10054 10066 10074 10078 10086 10097 10107 10117 10127 10138 10150 10161 10169 10176 10184 10191 10200 10208 10215 10224 10232 10240 10248 10256 10263 10269 10276 10282 10288 10294 10301 10307 10314 10322 10329 10335 10342
9932 9929 9927 9925 9925 9924 9923 9922 9922 9921 9921 9921 9921 9921 9922 9923 9925 9927 9928 9931 9934 9937 9940 9943 9946 9951 9957 9964 9971 9977 9985 9994 10000 10006 10014 10021 10027 10036 10047 10054 10059 10067 10080 10092 10103 10114 10125 10136 10147 10154 10162 10168 10175 10183 10191 10198 10207 10217 10224 10232 10239 10246 10253 10259 10265 10272 10277 10284 10291 10298 10305 10312 10319 10325
9925 9923 9921 9919 9918 9917 9917 9916 9915 9915 9915 9914 9915 9915 9916 9916 9918 9920 9921 9923 9926 9929 9932 9935 9939 9942 9947 9953 9959 9966 9973 9979 9985 9992 9999 10005 10013 10021 10030 10037 10043 10052 10065 10077 10088 10098 10109 10118 10126 10134 10142 10149 10157 10166 10174 10180 10190 10199 10207 10215 10222 10228 10235 10242 10248 10255 10262 10268 10275 10281 10288 10295 10302 10309
9918 9916 9914 9913 9911 9911 9910 9910 9909 9909 9908 9908 9908 9909 9909 9910 9911 9913 9915 9916 9919 9921 9924 9927 9931 9934 9938 9943 9949 9955 9961 9968 9975 9982 9989 9995 10002 10008 10014 10022 10028 10035 10047 10059 10068 10080 10090 10095 10103 10115 10124 10130 10139 10149 10157 10164 10173 10181 10189 10197 10204 10211 10218 10225 10232 10239 10246 10252 10258 10265 10271 10278 10285 10292
9912 9910 9908 9907 9905 9904 9904 9904 9903 9903 9903 9902 9903 9903 9904 9904 9905 9907 9908 9910 9912 9914 9917 9920 9922 9925 9929 9933 9939 9945 9951 9957 9964 9971 9978 9985 9990 9995 10000 10006 10011 10016 10026 10039 10050 10061 10070 10075 10087 10101 10107 10112 10123 10132 10139 10147 10155 10163 10170 10177 10185 10193 10201 10208 10215 10222 10228 10235 10241 10248 10255 10262 10268 10275
9905 9904 9902 9901 9900 9898 9898 9897 9897 9897 9897 9897 9897 9897 9898 9898 9899 9901 9902 9904 9905 9907 9910 9912 9914 9917 9921 9925 9930 9935 9940 9946 9953 9959 9966 9972 9977 9982 9986 9990 9995 10000 10009 10023 10035 10046 10053 10059 10071 10084 10088 10095 10107 10115 10120 10129 10138 10145 10152 10160 10168 10176 10183 10190 10197 10204 10211 10218 10225 10231 10238 10245 10251 10257
9898 9898 9897 9895 9894 9893 9892 9891 9891 9891 9891 9891 9891 9891 9892 9892 9893 9895 9896 9897 9899 9901 9903 9905 9907 9910 9914 9917 9921 9925 9930 9935 9942 9948 9955 9961 9966 9971 9974 9977 9981 9987 9996 10009 10022 10031 10037 10042 10052 10063 10070 10078 10089 10097 10102 10111 10119 10127 10134 10142 10149 10157 10165 10172 10180 10187 10194 10201 10208 10215 10221 10228 10234 10238
9892 9891 9891 9889 9888 9887 9886 9885 9884 9885 9885 9885 9886 9886 9886 9887 9887 9889 9890 9891 9893 9895 9897 9899 9900 9903 9906 9910 9913 9916 9920 9925 9931 9937 9944 9950 9955 9959 9962 9965 9970 9975 9983 9994 10004 10014 10020 10023 10031 10043 10051 10060 10071 10078 10083 10092 10101 10109 10116 10123 10131 10138 10146 10153 10161 10169 10176 10184 10191 10198 10204 10210 10216 10221
9885 9885 9884 9883 9882 9881 9880 9879 9878 9878 9879 9879 9880 9880 9881 9881 9881 9883 9884 9885 9887 9889 9891 9892 9894 9896 9899 9902 9905 9908 9911 9916 9921 9926 9932 9937 9941 9946 9951 9955 9960 9965 9971 9980 9990 10000 10006 10007 10014 10024 10032 10041 10052 10058 10064 10074 10084 10091 10098 10105 10112 10119 10126 10134 10142 10150 10158 10166 10173 10180 10186 10192 10197 10202
9879 9879 9878 9878 9877 9875 9874 9874 9873 9872 9872 9873 9874 9874 9875 9876 9876 9877 9878 9879 9880 9882 9884 9886 9888 9890 9892 9895 9898 9900 9903 9907 9911 9916 9920 9925 9929 9935 9940 9945 9949 9953 9959 9968 9978 9986 9990 9993 9999 10008 10015 10024 10034 10041 10047 10057 10065 10071 10079 10086 10093 10100 10107 10116 10124 10132 10140 10147 10154 10161 10167 10173 10179 10184
9872 9872 9872 9871 9871 9870 9869 9868 9868 9867 9867 9867 9867 9868 9869 9870 9871 9871 9872 9873 9875 9876 9878 9880 9882 9884 9886 9888 9891 9893 9895 9898 9902 9906 9910 9914 9918 9924 9929 9933 9937 9941 9947 9956 9964 9970 9974 9979 9986 9993 10001 10010 10018 10024 10031 10038 10045 10052 10060 10067 10074 10081 10090 10098 10106 10114 10121 10127 10134 10141 10147 10154 10160 10166
9865 9865 9865 9865 9865 9864 9864 9863 9862 9862 9862 9861 9861 9862 9863 9864 9865 9866 9867 9868 9869 9870 9871 9873 9875 9877 9879 9881 9884 9886 9888 9891 9894 9897 9900 9904 9908 9913 9918 9922 9926 9931 9938 9945 9950 9955 9959 9963 9970 9977 9985 9993 9999 10005 10011 10019 10026 10032 10039 10047 10055 10063 10071 10080 10088 10095 10101 10108 10114 10121 10127 10135 10142 10149
9858 9858 9858 9858 9858 9858 9858 9858 9857 9857 9856 9856 9856 9856 9857 9858 9859 9860 9861 9862 9863 9864 9865 9867 9869 9870 9873 9875 9877 9879 9881 9883 9886 9889 9892 9894 9898 9902 9907 9911 9915 9921 9927 9933 9938 9942 9945 9949 9954 9960 9966 9974 9982 9988 9993 9999 10006 10013 10020 10028 10036 10044 10052 10061 10068 10074 10080 10087 10094 10101 10108 10116 10123 10129
9851 9852 9852 9852 9852 9852 9852 9852 9852 9852 9851 9851 9851 9851 9851 9852 9853 9854 9855 9856 9857 9858 9859 9861 9862 9864 9866 9868 9870 9872 9874 9877 9879 9882 9884 9886 9888 9892 9896 9900 9904 9910 9916 9920 9925 9931 9935 9937 9942 9947 9952 9959 9967 9972 9976 9981 9988 9996 10004 10011 10018 10026 10034 10042 10049 10055 10061 10068 10075 10082 10089 10096 10102 10108
9845 9845 9846 9846 9846 9846 9846 9846 9846 9846 9846 9846 9846 9845 9846 9846 9847 9847 9849 9850 9851 9853 9854 9855 9856 9857 9859 9861 9862 9865 9867 9870 9872 9874 9876 9878 9880 9883 9885 9889 9893 9899 9904 9909 9914 9919 9923 9926 9930 9935 9941 9947 9953 9958 9962 9966 9972 9980 9989 9996 10002 10009 10017 10024 10031 10037 10043 10050 10056 10063 10070 10077 10083 10089
9839 9839 9840 9840 9840 9841 9840 9840 9840 9840 9841 9841 9841 9840 9840 9841 9841 9841 9842 9844 9845 9847 9848 9849 9850 9851 9852 9854 9856 9857 9859 9862 9865 9867 9868 9870 9872 9874 9876 9879 9883 9888 9894 9899 9903 9907 9911 9914 9919 9924 9929 9934 9940 9944 9948 9952 9958 9966 9974 9981 9988 9994 10001 10008 10013 10019 10025 10031 10038 10045 10052 10059 10065 10071
9833 9834 9834 9834 9834 9835 9835 9835 9835 9835 9835 9835 9835 9835 9835 9836 9836 9836 9837 9838 9839 9840 9842 9843 9844 9846 9847 9848 9849 9850 9852 9855 9857 9858 9860 9862 9864 9867 9869 9870 9874 9879 9884 9889 9893 9896 9900 9904 9909 9914 9918 9923 9927 9932 9936 9941 9946 9952 9959 9966 9973 9979 9985 9992 9997 10002 10008 10014 10020 10027 10034 10041 10047 10054
9827 9828 9828 9828 9828 9829 9829 9830 9830 9829 9829 9829 9830 9830 9830 9830 9831 9831 9831 9832 9833 9834 9835 9836 9838 9839 9841 9842 9843 9844 9846 9847 9849 9851 9852 9854 9856 9859 9861 9862 9866 9871 9876 9879 9883 9886 9889 9894 9899 9903 9908 9912 9916 9920 9924 9928 9932 9937 9943 9951 9958 9964 9970 9976 9981 9986 9991 9997 10003 10010 10017 10024 10030 10037
9822 9823 9823 9823 9823 9823 9823 9824 9824 9824 9824 9824 9824 9825 9825 9825 9825 9826 9826 9827 9828 9828 9829 9830 9831 9832 9834 9836 9837 9839 9840 9841 9842 9843 9845 9846 9848 9850 9853 9855 9858 9863 9867 9870 9873 9876 9879 9883 9888 9892 9896 9900 9904 9907 9911 9915 9918 9923 9929 9936 9942 9948 9954 9960 9965 9970 9975 9981 9987 9993 10000 10006 10013 10020
9817 9817 9817 9818 9818 9817 9817 9818 9818 9818 9819 9819 9819 9819 9820 9820 9820 9821 9821 9822 9822 9823 9823 9824 9825 9826 9827 9829 9831 9832 9833 9834 9836 9837 9838 9839 9840 9842 9845 9847 9850 9853 9858 9861 9864 9866 9870 9873 9876 9880 9883 9887 9891 9895 9899 9901 9905 9910 9916 9921 9927 9932 9938 9943 9949 9954 9960 9966 9971 9977 9983 9989 9995 10003
9811 9812 9812 9813 9813 9813 9813 9812 9813 9813 9813 9813 9814 9814 9815 9815 9815 9815 9816 9816 9817 9817 9818 9819 9819 9820 9821 9823 9824 9825 9826 9827 9829 9830 9832 9833 9834 9835 9837 9839 9841 9844 9847 9851 9855 9857 9860 9862 9865 9868 9871 9875 9879 9882 9885 9889 9893 9898 9904 9909 9914 9918 9923 9928 9933 9939 9944 9950 9956 9961 9967 9973 9979 9986
9806 9806 9807 9807 9808 9808 9808 9808 9808 9808 9808 9808 9808 9809 9809 9810 9810 9810 9810 9811 9811 9812 9812 9813 9814 9814 9815 9816 9817 9819 9820 9821 9822 9823 9825 9826 9827 9829 9830 9832 9834 9835 9838 9841 9845 9848 9849 9851 9854 9857 9860 9864 9867 9869 9872 9877 9882 9888 9893 9898 9902 9906 9910 9915 9919 9924 9929 9934 9940 9945 9950 9956 9962 9969
9799 9800 9801 9802 9803 9803 9803 9803 9803 9803 9803 9803 9803 9803 9804 9804 9805 9805 9805 9805 9805 9806 9807 9807 9808 9808 9809 9810 9811 9812 9813 9813 9814 9816 9818 9819 9820 9822 9823 9825 9826 9828 9830 9832 9835 9837 9839 9841 9844 9847 9850 9853 9855 9858 9862 9867 9873 9878 9882 9886 9890 9894 9898 9901 9905 9910 9914 9919 9924 9929 9935 9940 9946 9953
9793 9795 9796 9797 9797 9798 9798 9798 9798 9798 9798 9798 9798 9798 9798 9799 9799 9799 9800 9800 9800 9800 9801 9801 9802 9802 9803 9804 9804 9805 9806 9807 9808 9809 9810 9812 9813 9815 9816 9818 9819 9820 9822 9824 9826 9828 9830 9832 9835 9838 9840 9843 9846 9850 9855 9860 9863 9865 9868 9871 9876 9879 9883 9887 9892 9896 9900 9904 9908 9914 9919 9925 9931 9937
9788 9790 9790 9791 9792 9792 9793 9793 9793 9793 9793 9793 9793 9793 9793 9793 9793 9794 9794 9794 9794 9795 9796 9796 9796 9796 9797 9798 9798 9799 9800 9800 9801 9802 9803 9805 9806 9807 9809 9810 9812 9813 9815 9816 9818 9820 9822 9824 9826 9828 9830 9833 9836 9840 9844 9847 9849 9851 9854 9858 9862 9867 9871 9876 9880 9884 9887 9891 9895 9900 9906 9911 9916 9921
9783 9784 9785 9786 9787 9787 9787 9788 9788 9788 9788 9788 9788 9788 9788 9788 9788 9788 9788 9788 9789 9789 9790 9790 9791 9791 9791 9792 9792 9793 9794 9794 9795 9796 9797 9798 9799 9800 9802 9803 9804 9806 9807 9808 9810 9812 9814 9816 9817 9819 9821 9824 9827 9830 9834 9836 9839 9842 9845 9849 9853 9857 9861 9865 9868 9872 9876 9880 9884 9889 9894 9898 9902 9906
9778 9779 9780 9781 9781 9782 9782 9782 9783 9783 9783 9783 9783 9783 9783 9783 9783 9783 9783 9783 9783 9783 9784 9785 9785 9785 9786 9786 9787 9787 9788 9788 9788 9789 9791 9792 9793 9794 9795 9796 9797 9799 9800 9801 9802 9804 9805 9807 9809 9811 9813 9816 9819 9821 9824 9826 9829 9833 9836 9839 9843 9846 9849 9853 9856 9860 9864 9868 9872 9877 9882 9886 9889 9893
9773 9774 9775 9776 9776 9777 9777 9777 9778 9778 9778 9778 9778 9778 9778 9778 9778 9778 9777 9777 9777 9778 9778 9779 9779 9780 9780 9781 9781 9782 9782 9782 9782 9783 9784 9785 9786 9788 9789 9790 9791 9792 9793 9794 9795 9796 9798 9799 9801 9803 9806 9808 9810 9812 9815 9817 9819 9822 9825 9828 9832 9835 9838 9841 9845 9848 9852 9857 9861 9865 9869 9873 9876 9880
9768 9769 9770 9771 9771 9771 9772 9772 9773 9773 9773 9774 9774 9773 9773 9773 9773 9773 9773 9772 9772 9773 9773 9773 9773 9774 9775 9775 9776 9777 9777 9777 9777 9778 9779 9780 9781 9782 9783 9784 9785 9786 9786 9787 9788 9789 9791 9792 9794 9796 9798 9800 9802 9804 9806 9808 9810 9813 9815 9818 9821 9825 9828 9831 9835 9839 9842 9846 9850 9854 9858 9861 9864 9868
9763 9764 9765 9765 9766 9766 9767 9767 9767 9768 9768 9768 9769 9769 9769 9768 9768 9768 9768 9768 9767 9768 9768 9768 9768 9768 9769 9770 9771 9771 9772 9772 9772 9773 9773 9774 9775 9776 9777 9778 9779 9779 9780 9781 9782 9783 9784 9785 9787 9788 9790 9792 9794 9796 9798 9800 9802 9805 9807 9809 9812 9816 9819 9822 9825 9828 9832 9836 9840 9844 9846 9849 9853 9857